Regional Weather Roundup
Issued by NWS

Home | Current Version | Previous Version | Graphics & Text | Print | Product List | Glossary On
Versions: 1 2 3 4 5 6 7 8 9 10 11 12 13 14 15 16 17 18 19 20 21 22 23 24 25 26 27 28 29 30 31 32 33 34 35 36 37 38 39 40 41 42 43 44 45 46 47 48 49 50
000
ASUS43 KMPX 170810
RWRMN
WEATHER ROUNDUP FOR MINNESOTA
NATIONAL WEATHER SERVICE TWIN CITIES/CHANHASSEN MN
200 AM CST TUE JAN 17 2017


NOTE: "FAIR" INDICATES FEW OR NO CLOUDS BELOW 12,000 FEET WITH NO
SIGNIFICANT WEATHER AND/OR OBSTRUCTIONS TO VISIBILITY. N/A MEANS
CURRENT SKY AND/OR WEATHER CONDITIONS ARE NOT AVAILABLE.

MNZ060>063-068>070-170900-
   Twin Cities Metro

CITY           SKY/WX    TMP DP  RH WIND       PRES   REMARKS
TWIN CITIES    LGT SNOW  30  27  88 N6        29.94F FOG     WCI  24
ST PAUL        LGT SNOW  31  30  96 W6        29.95F FOG     WCI  25
CRYSTAL        LGT SNOW  29  23  78 N6        29.94F WCI  23
BLAINE         LGT SNOW  30  28  93 N7        29.95S WCI  23
LAKEVILLE      LGT SNOW  28  28 100 N3        29.92F
EDEN PRAIRIE   LGT SNOW  30  27  88 N7        29.93S FOG     WCI  23
SOUTH ST PAUL  LGT SNOW  32  31  96 N3        29.93F
LAKE ELMO      LGT SNOW  32  30  93 N6        29.94F WCI  26
$$
MNZ001>005-007-008-013>017-022>024-027-028-170900-
   Northwest Minnesota

CITY           SKY/WX    TMP DP  RH WIND       PRES   REMARKS
BEMIDJI        CLOUDY     4   1  89 CALM      29.97S
HALLOCK        CLOUDY     1   0  92 S8        29.98F WCI -12
ROSEAU         CLOUDY     1  -4  78 CALM      29.98R
WARROAD        CLOUDY     1  -2  85 CALM      29.97F
THIEF RVR FALL CLOUDY     3  -1  83 S3        29.99S FOG
CROOKSTON      CLOUDY     1   0  92 S3        30.02S
FOSSTON        CLOUDY     3   1  92 S5        29.98S FOG     WCI  -6
DETROIT LAKES  CLOUDY     5   3  92 SE5       29.97F WCI  -4
MOORHEAD       CLOUDY     1  -2  85 S5        30.02R WCI  -8
PARK RAPIDS    CLOUDY     2  -5  72 CALM      29.97S HAZE
MAHNOMEN       FAIR       6   3  88 S3        29.98F
$$
MNZ006-009>011-018-025>026-170900-
   North Central Minnesota

CITY           SKY/WX    TMP DP  RH WIND       PRES   REMARKS
BAUDETTE       CLOUDY    -1  -5  82 CALM      29.96F
FLAG ISLAND    CLOUDY     1  -2  85 SE6       29.96S WCI -10
INTL FALLS     PTCLDY     1  -4  79 CALM      29.97S
WASKISH        PTCLDY     1  -2  85 CALM      29.97F
BIG FORK       CLOUDY     3   0  85 CALM      29.98R
LONGVILLE      CLOUDY     3   1  92 CALM      29.98S
GRAND RAPIDS   CLOUDY     8   6  92 CALM      30.00S FOG
CRANE LAKE     CLOUDY    -2  -4  92 CALM      30.02R
ORR            CLOUDY     1  -2  85 CALM      29.95S
COOK           CLOUDY     1   0  92 CALM      29.98S
WALKER         FAIR      10   8  90 CALM      29.97F FOG
$$
MNZ012-019>021-037-170900-
   Northeast Minnesota

CITY           SKY/WX    TMP DP  RH WIND       PRES   REMARKS
DULUTH         CLOUDY    21  16  81 N3        29.96F
ELY            CLOUDY     1  -2  85 CALM      29.98R
HIBBING        CLOUDY     0  -2  91 CALM      29.97S
EVELETH        CLOUDY     4   0  83 CALM      29.98S
DULUTH HARBOR  CLOUDY    21  19  93 CALM      30.01F
TWO HARBORS    CLOUDY    19  16  86 CALM      29.97S
SILVER BAY     CLOUDY    16  14  93 CALM      29.97F FOG
GRAND MARAIS     N/A     25  22  88 N5        30.02S WCI  19
G MARAIS ARPRT FOG       16  10  79 N3        29.96F VSB 1/2
$$
MNZ029>031-032-039>041-046>048-054>057-064-170900-
   West Central Minnesota

CITY           SKY/WX    TMP DP  RH WIND       PRES   REMARKS
FERGUS FALLS   CLOUDY     9   7  92 CALM      30.05F
WHEATON        CLOUDY    10   9  92 CALM      30.03F
MORRIS         PTCLDY     7   5  92 N3        30.00F
ALEXANDRIA     CLOUDY    10   9  95 NW3       29.98F FOG
ELBOW LAKE     SNOW       4   1  90 CALM      30.00F VSB 1/4
WADENA         CLOUDY     1   0  92 CALM      29.97F FOG
GLENWOOD       CLOUDY    21  19  93 W3        29.99S
APPLETON       CLOUDY    16  10  79 CALM      30.02S
ORTONVILLE     PTCLDY     9   5  85 CALM      30.01F
MADISON        MOCLDY    16  10  79 NW6       30.02F WCI   7
WILLMAR        CLOUDY    28  28 100 NW8       29.99F FOG     WCI  20
$$
MNZ033>034-036-042>043-049>051-058-059-170900-
   Central Minnesota

CITY           SKY/WX    TMP DP  RH WIND       PRES   REMARKS
ST CLOUD       CLOUDY    27  23  85 CALM      29.97F
SAUK CENTRE    CLOUDY    25  24  97 NW9       29.99S FOG     WCI  15
PAYNESVILLE    CLOUDY    30  30 100 NW3       29.97F FOG
AITKIN         CLOUDY     5   0  78 CALM      29.98S
PINE RIVER     CLOUDY     1   0  92 CALM      30.02S
BRAINERD       CLOUDY    10   9  95 CALM      29.99S FOG
STAPLES        CLOUDY     0  -2  92 CALM      29.99S FOG
LONG PRAIRIE   CLOUDY    27  21  80 NW3       29.98F
LITTLE FALLS   CLOUDY    28  21  74 CALM      29.99S
LITCHFIELD     CLOUDY    30  27  86 NW6       29.97F WCI  24
BUFFALO        CLOUDY    29  22  75 N6        29.97F WCI  23
MAPLE LAKE     CLOUDY    31  26  81 N6        29.98S WCI  25
HUTCHINSON     CLOUDY    31  26  81 N7        29.97S WCI  24
$$
MNZ037-044-045-052-053-170900-
   East Central Minnesota

CITY           SKY/WX    TMP DP  RH WIND       PRES   REMARKS
PRINCETON      CLOUDY    28  23  80 N3        29.98S
MORA           CLOUDY    25  19  80 CALM      29.99F
CAMBRIDGE      CLOUDY    30  21  69 N5        29.96S WCI  25
RUSH CITY      CLOUDY    28  23  80 N7        29.98S WCI  21
MOOSE LAKE     CLOUDY    18  14  86 CALM      29.97S
HINCKLEY       FAIR      28  21  74 N5        29.98F WCI  23
CLOQUET        CLOUDY    16  12  86 CALM      29.97S
MCGREGOR       CLOUDY     9   5  85 CALM      29.99S
$$
MNZ071>073-080-081-089-090-097-098-170900-
   Southwest Minnesota

CITY           SKY/WX    TMP DP  RH WIND       PRES   REMARKS
MONTEVIDEO     CLOUDY    19  18  93 N9        30.02F WCI   9
GRANITE FALLS  CLOUDY    24  22  94 NW10      30.01F WCI  13
CANBY            N/A     20  14  77 CALM      30.02F
MARSHALL       CLOUDY    21  19  93 NW12      30.00S FOG     WCI   9
REDWOOD FALLS  CLOUDY    29  27  92 NW9       29.97S FOG     WCI  20
OLIVIA         CLOUDY    30  28  93 NW12      29.98R FOG     WCI  21
PIPESTONE      CLOUDY    28  27  93 N6        29.96R WCI  22
WINDOM         FOG       27  27 100 NW10      29.94S VSB 3/4 WCI  17
WORTHINGTON    CLOUDY    27  27 100 NW13      29.95S FOG     WCI  16
JACKSON        CLOUDY    28  28 100 N9        29.94R FOG     WCI  20
TRACY          CLOUDY    23  22  96 NW10      29.98S FOG     WCI  13
SLAYTON        FOG       25  25  98 NW7       29.96S VSB 1   WCI  18
$$
MNZ065>067-074>077-082>085-091>093-170900-
   South Central Minnesota

CITY           SKY/WX    TMP DP  RH WIND       PRES   REMARKS
MANKATO        LGT SNOW  30  28  92 N12       29.93S FOG     WCI  20
NEW ULM        CLOUDY    28  27  93 N5        29.95R WCI  23
ST JAMES       LGT SNOW  28  28 100 NW10      29.95F WCI  19
FAIRMONT       LGT SNOW  30  28  93 N16       29.93R FOG     WCI  19
GLENCOE        CLOUDY    30  28  92 N9        29.95S WCI  21
FARIBAULT      MIX PCPN  30  28  93 NW6       29.92S WCI  24
OWATONNA       LGT RAIN  30  30 100 N6        29.90F WCI  24
WASECA         LGT SNOW  32  32 100 N6        29.92S WCI  26
ALBERT LEA     CLOUDY    32  32 100 N6        29.88F FOG     WCI  26
$$
MNZ078>079-086>088-094>096-170900-
   Southeast Minnesota

CITY           SKY/WX    TMP DP  RH WIND       PRES   REMARKS
ROCHESTER      FRZ RAIN  32  32 100 N7        29.87S FOG     WCI  26
RED WING       LGT SNOW  34  30  86 CALM      29.91S
STANTON        LGT SNOW  32  31  94 N6        29.91S WCI  26
DODGE CENTER   MIX PCPN  30  30 100 CALM      29.88S
WINONA         CLOUDY    34  34 100 NW6       29.89F FOG     WCI  29
AUSTIN         CLOUDY    32  30  93 CALM      29.87S FOG
PRESTON        CLOUDY    31  30  96 CALM      29.86S FOG
$$
ABBREVIATIONS USED IN REMARKS
   TC - TEMPERATURES IN CELSIUS
  WCI - WIND CHILL INDEX
   HX - HEAT INDEX
  VSB - VISIBILITY
$$




USA.gov is the U.S. government's official web portal to all federal, state and local government web resources and services.